Location: Berbisdorf
(50.7638°N, 12.9442°E)
Time: 02:18:29
(UTC+00:00)

BREEZE-M DEB (TANK) - Pass Details

Date: 10 October 2020
Orbit: 333 x 12040 km, 49.7° (Epoch: 19 October)

Event Time Altitude Azimuth Distance (km) Brightness Sun altitude
Rises 01:13:38 0° 178° (S) 14,184 8.9 -37.5°
Reaches altitude 10° 01:26:36 10° 173° (S) 14,457 9.0 -36.0°
Maximum altitude 02:51:33 51° 119° (ESE) 10,982 8.7 -24.5°
Drops below altitude 10° 03:30:58 10° 61° (ENE) 8,168 9.1 -18.5°
Sets 03:35:17 0° 56° (ENE) 8,283 9.4 -17.8°
